Location: Unspecified
(0.0000°N, 0.0000°E)
Time: 10:57:18
(UTC+00:00)

Explorer 11/Cluster Stage 4 - Pass Details

Date: 21 November 2019
Orbit: 467 x 1259 km, 28.8° (Epoch: 12 July)

Event Time Altitude Azimuth Distance (km) Brightness Sun altitude
Exits shadow 03:17:37 70° 178° (S) 1,290 7.5 -34.5°
Drops below altitude 10° 03:24:39 10° 127° (SE) 2,998 10.3 -32.9°
Sets 03:27:17 0° 125° (SE) 3,865 11.2 -32.3°
